SCP
-0 -0 -0 -0 -0 -0 0 0 0 0 0 0 0 -0 0 0 0 0 0 0 0 0 0 0 0 0 0 0 0 0 0 0 0 0 0 0 0 0 0 0 0 0 0 0
-0 -0 -0 -0 -0 0 0 0 0 0 0 0 0 0 0 0 0 0 0 0 0 0 0 0 0 0 0 0 0 0 0 0 0 0 0 0 0 0 0 0 0 0 0 0
-0 -0 -0 -0 -0 -0 0 0 0 0 0 0 0 0 0 0 0 0 0 0 0 0 0 0 0 0 0 0 0 0 0 0 0 0 0 0 0 0 0 0 0 0 0 0
-0 -0 -0 -0 -0 -0 0 0 0 0 0 0 0 0 0 0 0 0 0 0 0 0 0 0 0 0 0 0 0 0 0 0 0 0 0 0 0 0 0 0 0 0 0 0
-0 -0 -0 -0 -0 -0 0 0 0 0 0 0 0 0 0 0 0 0 0 0 0 0 0 0 0 0 0 0 0 0 0 0 0 0 0 0 0 0 0 0 0 0 0 0
-0 -0 -0 -0 -0 0 0 0 0 0 0 0 0 0 0 0 0 0 0 0 0 0 0 0 0 0 0 0 0 0 0 0 0 0 0 0 0 0 0 0 0 0 0 0
0 0 0 0 0 0 0 0 0 0 0 0 0 0 0 0 0 0 0 0 0 0 0 0 0 0 0 0 0 0 0 0 0 0 0 0 0 0 0 0 0 0 0 0
0 0 0 0 0 0 0 0 0 0 0 0 0 0 0 0 0 0 0 0 0 0 0 0 0 0 0 0 0 0 0 0 0 0 0 0 0 0 0 0 0 0 0 0
0 0 0 0 0 0 0 0 0 0 0 0 0 0 0 0 0 0 0 0 0 0 0 0 0 0 0 0 0 0 0 0 0 0 0 0 0 0 0 0 0 0 0 0
0 0 0 0 0 0 0 0 0 0 0 0 0 0 0 0 0 0 0 0 0 0 0 0 0 0 0 0 0 0 0 -0 -0 -0 -0 -0 -0 0 0 0 0 0 0 0
0 0 0 0 0 0 0 0 0 0 0 0 0 0 0 0 0 0 0 0 0 0 0 0 0 0 0 0 0 0 0 0 0 -0 -0 -0 0 0 0 -0 0 -0 0 0
0 0 0 0 0 0 0 0 0 0 0 0 -0 0 0 0 0 0 0 0 0 0 0 0 0 0 0 0 0 0 0 0 0 0 0 -0 -0 -0 0 0 -0 -0 0 -0
0 0 0 0 0 0 0 0 0 0 0 0 0 0 0 0 0 0 0 0 0 0 0 0 0 0 0 0 0 0 0 0 0 -0 0 -0 -0 -0 -0 -0 -0 0 0 0
0 0 0 0 0 0 0 0 0 0 0 0 0 0 0 -0 0 0 0 0 0 0 0 0 0 0 0 0 0 0 0 0 0 0 -0 0 -0 -0 -0 -0 0 0 -0 0
0 0 0 0 0 0 0 0 0 0 0 0 0 0 0 0 0 0 0 0 0 0 0 0 0 0 0 0 0 0 0 -0 -0 -0 -0 0 -0 -0 -0 -0 -0 -0 0 -0
0 0 0 0 0 0 0 0 0 0 0 0 0 0 0 0 0 0 0 0 0 0 0 0 0 0 0 0 0 0 0 -0 0 0 0 0 -0 -0 -0 -0 0 -0 -0 -0
0 0 0 0 0 0 0 0 0 0 0 0 0 0 0 0 0 0 0 0 0 0 0 0 0 0 0 0 0 0 -0 -0 0 0 -0 -0 -0 -0 0 0 -0 -0 0 0
0 0 0 0 0 0 0 0 -0 0 0 0 0 0 0 0 0 0 0 0 0 0 0 0 0 0 0 0 0 -0 0 -0 -0 -0 -0 -0 -0 -0 -0 -0 -0 -0 -0 -0
0 0 0 0 0 0 0 0 0 0 0 0 0 0 0 0 0 0 0 0 0 0 0 0 0 0 0 0 0 -0 0 -0 -0 -0 -0 -0 0 0 0 -0 -0 -0 -0 -0
0 0 0 0 0 0 0 0 0 0 0 0 0 0 -0 0 0 0 0 0 0 0 0 0 0 0 0 -0 -0 0 0 0 -0 -0 0 0 0 0 0 -0 0 -0 -0 0
0 0 0 0 0 0 0 0 0 0 0 0 0 0 0 0 0 0 0 0 0 -0 0 -0 -0 -0 0 0 0 -0 0 0 -0 -0 -0 -0 -0 0 -0 -0 -0 -0 0 0
0 0 0 0 0 0 0 0 0 0 0 0 0 0 0 0 0 0 0 0 0 -0 -0 -0 -0 0 -0 -0 -0 0 0 0 0 0 0 -0 0 -0 0 -0 -0 0 0 0
0 0 0 0 0 0 0 0 0 0 0 0 0 0 0 0 0 0 0 0 -0 0 0 -0 0 -0 -0 -0 -0 0 0 -0 0 -0 0 -0 -0 0 -0 -0 0 0 0 0
0 0 0 0 0 0 0 0 0 0 0 0 0 0 0 0 0 0 0 0 0 0 -0 -0 -0 -0 -0 -0 0 -0 -0 0 0 0 0 0 0 0 -0 0 0 0 0 0
0 0 0 0 0 0 0 0 0 0 0 0 0 0 0 0 0 0 0 0 0 -0 -0 -0 -0 -0 -0 -0 0 -0 -0 0 0 0 0 -0 0 -0 -0 0 0 0 0 0
0 0 0 0 0 0 0 0 0 0 0 0 0 0 0 0 0 0 0 0 0 -0 -0 -0 0 0 -0 -0 0 -0 0 0 0 0 -0 -0 0 -0 -0 0 0 0 0 0
0 0 0 0 0 0 0 0 0 0 0 0 0 0 0 0 0 0 0 -0 -0 -0 -0 0 -0 -0 -0 -0 0 -0 -0 -0 -0 -0 -0 -0 0 -0 -0 0 0 0 0 0
Wind_Speed_500mb
63 61 60 61 64 56 32 12 5 12 14 4 7 3 3 2 14 12 3 5 8 10 14 8 11 13 9 11 6 5 5 6 10 20 45 39 27 20 2 7 13 6 6 32
61 59 57 53 50 58 56 30 9 15 23 7 9 26 18 6 4 11 11 12 12 16 12 8 7 9 27 11 14 9 8 3 10 19 13 5 6 14 18 11 2 16 10 21
58 58 54 50 38 37 37 17 8 18 17 36 14 12 10 18 1 3 10 12 16 13 8 10 12 21 14 46 25 20 17 11 17 19 18 19 30 33 28 8 6 25 34 50
55 55 54 48 36 36 26 19 12 19 9 15 18 15 14 17 12 24 34 10 19 16 2 10 13 17 20 34 42 17 13 15 20 33 35 35 38 37 30 30 38 32 53 46
50 49 50 49 44 20 38 15 17 24 32 31 22 12 8 18 21 17 14 9 15 15 12 8 12 19 12 12 11 15 6 20 19 41 36 34 42 41 39 38 40 44 43 33
47 43 44 45 44 36 16 32 28 15 19 17 12 10 15 17 18 12 32 27 13 14 17 34 36 42 45 38 30 35 21 18 7 42 20 26 30 20 28 32 32 14 9 8
43 40 36 36 35 34 25 32 27 12 8 15 18 31 34 27 29 14 33 31 11 21 36 43 51 54 58 55 51 53 35 27 9 27 12 33 17 16 20 13 11 14 16 13
37 38 33 29 27 24 20 21 18 12 8 25 27 34 25 34 34 18 24 28 16 32 23 9 13 10 10 14 9 20 11 20 10 14 21 21 23 18 6 2 13 12 7 14
33 32 33 28 25 23 18 13 13 13 17 6 26 27 29 9 11 13 29 45 26 30 8 6 6 7 16 11 21 18 17 10 6 12 11 6 9 31 23 8 10 10 5 13
31 29 29 30 25 21 18 11 15 12 17 23 38 5 12 15 23 9 24 26 18 18 2 5 6 11 26 12 13 16 10 8 5 7 12 11 26 22 9 6 12 40 36 28
27 27 26 27 27 21 13 10 17 20 14 53 18 17 30 37 25 5 31 17 17 10 8 5 7 6 9 12 19 15 8 7 7 10 6 10 36 44 9 20 38 44 31 28
25 25 24 24 25 24 17 13 15 12 19 33 54 41 30 35 32 28 8 14 21 6 4 5 5 7 9 9 11 11 9 2 10 7 11 49 60 45 62 70 56 31 40 51
24 22 23 24 23 24 24 22 13 25 27 45 17 13 17 8 8 18 16 9 9 12 12 9 5 9 5 6 15 22 13 36 9 26 11 32 47 62 58 75 60 37 47 36
22 20 21 23 23 23 24 28 14 3 18 12 16 17 26 28 34 33 39 44 26 29 15 11 5 4 9 7 19 26 31 35 18 27 27 57 37 44 66 57 43 49 49 49
23 22 21 22 24 24 23 23 4 5 21 11 37 67 15 6 11 17 22 21 32 24 12 7 7 10 14 14 13 14 13 14 9 20 47 31 62 67 48 39 37 34 42 52
25 23 21 24 27 23 18 3 6 14 17 9 9 26 16 3 21 29 30 29 39 33 9 8 9 11 6 6 6 8 56 54 35 21 51 52 43 50 35 34 29 39 44 42
25 23 23 26 25 22 13 9 6 15 15 7 13 13 14 5 23 29 29 23 23 15 10 9 11 14 15 7 10 36 44 52 39 35 49 45 47 43 30 35 40 41 39 36
22 24 25 22 24 27 20 7 16 19 10 10 7 10 15 6 8 4 12 12 19 14 12 6 8 13 13 6 28 52 48 43 37 47 49 48 43 47 42 37 38 39 38 39
20 19 19 21 10 0 5 14 11 11 11 8 10 5 7 16 20 10 18 10 6 16 11 10 7 5 3 11 35 46 46 36 40 57 43 42 35 37 38 36 38 38 35 37
12 11 3 4 11 7 7 7 10 16 12 14 12 23 14 30 41 6 15 12 5 6 7 4 3 1 10 23 44 33 31 26 40 47 41 39 40 39 37 35 33 30 30 32
5 1 3 1 4 4 9 10 13 16 9 15 15 32 17 21 3 4 7 4 7 6 5 4 1 2 16 45 35 32 27 15 34 29 28 33 34 34 33 32 30 31 36 32
9 9 13 7 7 12 10 7 12 12 8 20 14 21 23 9 10 11 6 2 5 8 17 3 3 3 40 48 35 39 22 21 39 24 31 31 32 30 28 27 28 32 33 40
7 5 4 8 9 5 11 11 7 7 10 18 16 10 8 11 11 12 5 8 9 9 4 2 3 17 38 44 32 37 12 24 29 22 32 27 27 29 26 27 30 32 43 46
6 10 8 9 10 12 12 14 12 11 4 6 14 16 6 8 11 11 8 8 3 1 3 3 1 21 37 34 24 23 5 10 29 26 25 25 31 24 26 32 34 30 46 49
9 11 9 12 23 32 27 32 27 15 25 22 15 13 8 9 6 5 5 6 4 4 2 5 7 23 31 29 23 28 5 8 29 22 21 25 28 28 28 29 34 47 50 55
10 14 13 24 25 27 28 30 24 28 15 18 14 5 5 8 5 7 8 5 4 3 6 6 7 24 26 17 24 9 6 13 26 19 22 27 26 36 35 46 42 49 53 60
12 16 31 38 40 37 43 37 32 23 23 7 7 5 8 6 5 5 5 6 10 4 19 12 15 26 23 12 20 6 6 19 23 26 33 30 31 34 29 32 43 42 42 40
Wind_Direction_500mb
356 359 2 1 355 4 14 10 342 8 359 315 246 18 99 347 22 3 360 346 299 342 15 330 332 328 1 80 81 267 85 253 281 268 274 269 252 253 101 96 297 262 262 274
354 358 2 5 2 357 358 341 289 43 18 53 348 360 345 197 37 30 1 328 348 3 345 342 270 294 306 268 181 185 145 306 335 325 326 358 50 337 336 297 134 259 254 263
353 354 1 5 10 358 353 351 342 357 52 44 29 349 330 348 118 128 41 341 317 286 288 330 296 314 318 312 342 168 150 192 180 237 246 296 290 294 293 276 260 288 260 279
353 354 357 4 15 20 12 16 32 9 331 342 332 310 288 288 10 20 14 346 341 354 336 328 287 298 312 324 312 177 156 221 223 238 251 253 262 275 279 276 270 259 278 275
350 355 356 1 9 31 38 39 10 338 303 317 300 291 46 16 359 7 322 307 323 349 328 292 298 342 338 261 309 299 232 265 272 262 255 269 274 271 275 274 280 276 283 284
345 354 358 1 8 19 64 22 1 325 289 298 300 11 343 333 341 321 345 339 335 314 350 340 321 306 286 265 270 268 267 276 324 276 280 285 276 250 255 264 288 274 272 326
341 347 359 2 7 19 30 26 350 304 296 335 341 345 1 351 342 317 303 311 7 6 336 323 316 295 271 264 260 248 250 238 177 266 292 262 247 246 280 276 277 305 331 21
339 340 350 359 360 2 6 35 18 332 302 318 323 335 330 332 330 349 335 30 358 349 343 315 312 298 312 282 317 47 321 252 272 244 225 253 316 314 4 131 301 38 12 333
334 336 339 352 354 353 3 43 358 348 313 169 358 344 357 351 333 326 338 334 352 2 335 7 294 306 281 288 313 52 30 132 89 301 314 256 353 7 13 81 285 22 319 275
327 331 336 338 351 352 348 15 12 352 292 282 345 324 314 333 343 295 317 352 343 340 295 276 244 252 281 288 314 337 325 326 241 242 241 226 241 339 343 62 265 325 315 305
321 325 331 331 338 350 2 58 35 360 299 289 283 312 308 299 297 280 310 355 15 3 10 329 345 320 344 324 321 288 277 295 294 322 308 270 341 338 6 277 310 311 304 301
314 317 322 325 331 336 338 301 269 289 286 268 289 285 286 262 248 275 268 279 334 277 53 337 335 313 291 272 284 326 305 284 286 255 266 300 299 294 307 317 323 314 315 320
311 313 314 318 325 330 327 321 325 339 303 313 296 8 54 42 254 241 236 263 263 331 347 326 272 258 343 309 292 302 295 307 305 308 287 303 324 320 325 333 324 323 324 319
309 317 310 314 321 324 316 313 325 243 309 295 292 278 281 267 264 252 254 265 263 273 264 265 245 243 258 255 277 290 288 302 297 295 305 316 305 324 329 314 322 326 326 332
305 311 310 316 322 319 316 317 146 122 276 292 299 307 337 226 309 229 242 255 236 242 222 200 232 258 278 289 279 272 274 347 324 308 310 317 311 320 322 321 335 334 330 329
296 305 308 315 317 321 337 53 184 230 239 294 306 294 321 248 232 246 248 248 241 225 207 218 255 258 287 257 266 331 351 332 339 332 339 330 324 326 319 343 344 332 335 326
288 296 303 307 305 300 270 244 209 207 253 287 283 283 324 246 235 244 249 254 212 214 206 224 242 263 242 260 274 339 326 328 333 338 334 325 332 348 355 337 336 339 334 348
288 293 293 292 288 294 289 305 250 220 273 246 264 276 280 331 313 15 266 276 200 203 216 222 236 273 223 258 333 328 327 331 329 342 332 326 333 338 339 348 343 351 357 356
285 289 294 292 273 54 274 253 244 245 202 275 255 273 282 14 345 340 308 252 200 170 193 218 220 243 218 278 305 317 326 322 335 338 342 345 347 342 348 353 356 1 4 359
275 295 99 224 157 212 275 260 181 202 219 231 262 269 283 299 297 317 338 290 232 203 202 149 224 334 307 318 324 322 346 360 346 341 343 350 350 350 354 1 9 17 17 24
98 36 233 340 278 257 221 217 195 194 227 218 244 232 250 281 298 292 258 309 294 280 119 238 186 266 341 339 338 327 338 355 3 344 349 348 354 357 2 17 25 39 39 39
197 276 299 310 235 222 242 216 199 198 243 175 225 230 223 257 226 225 251 219 293 263 181 227 316 60 345 342 341 344 341 8 6 1 4 5 6 7 30 35 51 47 59 71
207 241 241 218 231 218 219 216 221 200 225 173 209 225 226 226 216 235 201 220 231 326 3 3 50 333 345 344 353 358 25 9 5 10 6 16 24 25 42 57 69 67 87 78
210 215 226 227 199 217 205 239 268 269 131 205 221 254 245 225 177 236 214 243 12 304 246 63 290 343 344 343 3 359 12 16 14 12 27 39 31 38 73 81 67 88 88 64
241 230 234 229 242 270 288 259 228 245 183 216 236 253 259 293 272 247 292 262 156 264 109 232 329 337 348 339 354 353 71 16 21 35 44 53 48 60 86 84 87 107 89 80
243 239 259 272 271 261 267 268 231 212 221 228 209 263 259 236 231 213 236 136 283 258 207 238 300 352 359 350 11 74 162 23 40 57 78 66 68 76 95 82 87 116 98 88
234 237 238 256 280 284 288 300 306 324 209 212 158 232 220 234 231 286 359 28 279 19 118 132 17 16 9 28 17 124 172 34 59 99 94 89 90 83 103 98 104 100 110 81
Wind_Speed_850mb
63 61 60 61 64 56 32 12 5 12 14 4 7 3 3 2 14 12 3 5 8 10 14 8 11 13 9 11 6 5 5 6 10 20 45 39 27 20 2 7 13 6 6 32
61 59 57 53 50 58 56 30 9 15 23 7 9 26 18 6 4 11 11 12 12 16 12 8 7 9 27 11 14 9 8 3 10 19 13 5 6 14 18 11 2 16 10 21
58 58 54 50 38 37 37 17 8 18 17 36 14 12 10 18 1 3 10 12 16 13 8 10 12 21 14 46 25 20 17 11 17 19 18 19 30 33 28 8 6 25 34 50
55 55 54 48 36 36 26 19 12 19 9 15 18 15 14 17 12 24 34 10 19 16 2 10 13 17 20 34 42 17 13 15 20 33 35 35 38 37 30 30 38 32 53 46
50 49 50 49 44 20 38 15 17 24 32 31 22 12 8 18 21 17 14 9 15 15 12 8 12 19 12 12 11 15 6 20 19 41 36 34 42 41 39 38 40 44 43 33
47 43 44 45 44 36 16 32 28 15 19 17 12 10 15 17 18 12 32 27 13 14 17 34 36 42 45 38 30 35 21 18 7 42 20 26 30 20 28 32 32 14 9 8
43 40 36 36 35 34 25 32 27 12 8 15 18 31 34 27 29 14 33 31 11 21 36 43 51 54 58 55 51 53 35 27 9 27 12 33 17 16 20 13 11 14 16 13
37 38 33 29 27 24 20 21 18 12 8 25 27 34 25 34 34 18 24 28 16 32 23 9 13 10 10 14 9 20 11 20 10 14 21 21 23 18 6 2 13 12 7 14
33 32 33 28 25 23 18 13 13 13 17 6 26 27 29 9 11 13 29 45 26 30 8 6 6 7 16 11 21 18 17 10 6 12 11 6 9 31 23 8 10 10 5 13
31 29 29 30 25 21 18 11 15 12 17 23 38 5 12 15 23 9 24 26 18 18 2 5 6 11 26 12 13 16 10 8 5 7 12 11 26 22 9 6 12 40 36 28
27 27 26 27 27 21 13 10 17 20 14 53 18 17 30 37 25 5 31 17 17 10 8 5 7 6 9 12 19 15 8 7 7 10 6 10 36 44 9 20 38 44 31 28
25 25 24 24 25 24 17 13 15 12 19 33 54 41 30 35 32 28 8 14 21 6 4 5 5 7 9 9 11 11 9 2 10 7 11 49 60 45 62 70 56 31 40 51
24 22 23 24 23 24 24 22 13 25 27 45 17 13 17 8 8 18 16 9 9 12 12 9 5 9 5 6 15 22 13 36 9 26 11 32 47 62 58 75 60 37 47 36
22 20 21 23 23 23 24 28 14 3 18 12 16 17 26 28 34 33 39 44 26 29 15 11 5 4 9 7 19 26 31 35 18 27 27 57 37 44 66 57 43 49 49 49
23 22 21 22 24 24 23 23 4 5 21 11 37 67 15 6 11 17 22 21 32 24 12 7 7 10 14 14 13 14 13 14 9 20 47 31 62 67 48 39 37 34 42 52
25 23 21 24 27 23 18 3 6 14 17 9 9 26 16 3 21 29 30 29 39 33 9 8 9 11 6 6 6 8 56 54 35 21 51 52 43 50 35 34 29 39 44 42
25 23 23 26 25 22 13 9 6 15 15 7 13 13 14 5 23 29 29 23 23 15 10 9 11 14 15 7 10 36 44 52 39 35 49 45 47 43 30 35 40 41 39 36
22 24 25 22 24 27 20 7 16 19 10 10 7 10 15 6 8 4 12 12 19 14 12 6 8 13 13 6 28 52 48 43 37 47 49 48 43 47 42 37 38 39 38 39
20 19 19 21 10 0 5 14 11 11 11 8 10 5 7 16 20 10 18 10 6 16 11 10 7 5 3 11 35 46 46 36 40 57 43 42 35 37 38 36 38 38 35 37
12 11 3 4 11 7 7 7 10 16 12 14 12 23 14 30 41 6 15 12 5 6 7 4 3 1 10 23 44 33 31 26 40 47 41 39 40 39 37 35 33 30 30 32
5 1 3 1 4 4 9 10 13 16 9 15 15 32 17 21 3 4 7 4 7 6 5 4 1 2 16 45 35 32 27 15 34 29 28 33 34 34 33 32 30 31 36 32
9 9 13 7 7 12 10 7 12 12 8 20 14 21 23 9 10 11 6 2 5 8 17 3 3 3 40 48 35 39 22 21 39 24 31 31 32 30 28 27 28 32 33 40
7 5 4 8 9 5 11 11 7 7 10 18 16 10 8 11 11 12 5 8 9 9 4 2 3 17 38 44 32 37 12 24 29 22 32 27 27 29 26 27 30 32 43 46
6 10 8 9 10 12 12 14 12 11 4 6 14 16 6 8 11 11 8 8 3 1 3 3 1 21 37 34 24 23 5 10 29 26 25 25 31 24 26 32 34 30 46 49
9 11 9 12 23 32 27 32 27 15 25 22 15 13 8 9 6 5 5 6 4 4 2 5 7 23 31 29 23 28 5 8 29 22 21 25 28 28 28 29 34 47 50 55
10 14 13 24 25 27 28 30 24 28 15 18 14 5 5 8 5 7 8 5 4 3 6 6 7 24 26 17 24 9 6 13 26 19 22 27 26 36 35 46 42 49 53 60
12 16 31 38 40 37 43 37 32 23 23 7 7 5 8 6 5 5 5 6 10 4 19 12 15 26 23 12 20 6 6 19 23 26 33 30 31 34 29 32 43 42 42 40
Wind_Direction_850mb
356 359 2 1 355 4 14 10 342 8 359 315 246 18 99 347 22 3 360 346 299 342 15 330 332 328 1 80 81 267 85 253 281 268 274 269 252 253 101 96 297 262 262 274
354 358 2 5 2 357 358 341 289 43 18 53 348 360 345 197 37 30 1 328 348 3 345 342 270 294 306 268 181 185 145 306 335 325 326 358 50 337 336 297 134 259 254 263
353 354 1 5 10 358 353 351 342 357 52 44 29 349 330 348 118 128 41 341 317 286 288 330 296 314 318 312 342 168 150 192 180 237 246 296 290 294 293 276 260 288 260 279
353 354 357 4 15 20 12 16 32 9 331 342 332 310 288 288 10 20 14 346 341 354 336 328 287 298 312 324 312 177 156 221 223 238 251 253 262 275 279 276 270 259 278 275
350 355 356 1 9 31 38 39 10 338 303 317 300 291 46 16 359 7 322 307 323 349 328 292 298 342 338 261 309 299 232 265 272 262 255 269 274 271 275 274 280 276 283 284
345 354 358 1 8 19 64 22 1 325 289 298 300 11 343 333 341 321 345 339 335 314 350 340 321 306 286 265 270 268 267 276 324 276 280 285 276 250 255 264 288 274 272 326
341 347 359 2 7 19 30 26 350 304 296 335 341 345 1 351 342 317 303 311 7 6 336 323 316 295 271 264 260 248 250 238 177 266 292 262 247 246 280 276 277 305 331 21
339 340 350 359 360 2 6 35 18 332 302 318 323 335 330 332 330 349 335 30 358 349 343 315 312 298 312 282 317 47 321 252 272 244 225 253 316 314 4 131 301 38 12 333
334 336 339 352 354 353 3 43 358 348 313 169 358 344 357 351 333 326 338 334 352 2 335 7 294 306 281 288 313 52 30 132 89 301 314 256 353 7 13 81 285 22 319 275
327 331 336 338 351 352 348 15 12 352 292 282 345 324 314 333 343 295 317 352 343 340 295 276 244 252 281 288 314 337 325 326 241 242 241 226 241 339 343 62 265 325 315 305
321 325 331 331 338 350 2 58 35 360 299 289 283 312 308 299 297 280 310 355 15 3 10 329 345 320 344 324 321 288 277 295 294 322 308 270 341 338 6 277 310 311 304 301
314 317 322 325 331 336 338 301 269 289 286 268 289 285 286 262 248 275 268 279 334 277 53 337 335 313 291 272 284 326 305 284 286 255 266 300 299 294 307 317 323 314 315 320
311 313 314 318 325 330 327 321 325 339 303 313 296 8 54 42 254 241 236 263 263 331 347 326 272 258 343 309 292 302 295 307 305 308 287 303 324 320 325 333 324 323 324 319
309 317 310 314 321 324 316 313 325 243 309 295 292 278 281 267 264 252 254 265 263 273 264 265 245 243 258 255 277 290 288 302 297 295 305 316 305 324 329 314 322 326 326 332
305 311 310 316 322 319 316 317 146 122 276 292 299 307 337 226 309 229 242 255 236 242 222 200 232 258 278 289 279 272 274 347 324 308 310 317 311 320 322 321 335 334 330 329
296 305 308 315 317 321 337 53 184 230 239 294 306 294 321 248 232 246 248 248 241 225 207 218 255 258 287 257 266 331 351 332 339 332 339 330 324 326 319 343 344 332 335 326
288 296 303 307 305 300 270 244 209 207 253 287 283 283 324 246 235 244 249 254 212 214 206 224 242 263 242 260 274 339 326 328 333 338 334 325 332 348 355 337 336 339 334 348
288 293 293 292 288 294 289 305 250 220 273 246 264 276 280 331 313 15 266 276 200 203 216 222 236 273 223 258 333 328 327 331 329 342 332 326 333 338 339 348 343 351 357 356
285 289 294 292 273 54 274 253 244 245 202 275 255 273 282 14 345 340 308 252 200 170 193 218 220 243 218 278 305 317 326 322 335 338 342 345 347 342 348 353 356 1 4 359
275 295 99 224 157 212 275 260 181 202 219 231 262 269 283 299 297 317 338 290 232 203 202 149 224 334 307 318 324 322 346 360 346 341 343 350 350 350 354 1 9 17 17 24
98 36 233 340 278 257 221 217 195 194 227 218 244 232 250 281 298 292 258 309 294 280 119 238 186 266 341 339 338 327 338 355 3 344 349 348 354 357 2 17 25 39 39 39
197 276 299 310 235 222 242 216 199 198 243 175 225 230 223 257 226 225 251 219 293 263 181 227 316 60 345 342 341 344 341 8 6 1 4 5 6 7 30 35 51 47 59 71
207 241 241 218 231 218 219 216 221 200 225 173 209 225 226 226 216 235 201 220 231 326 3 3 50 333 345 344 353 358 25 9 5 10 6 16 24 25 42 57 69 67 87 78
210 215 226 227 199 217 205 239 268 269 131 205 221 254 245 225 177 236 214 243 12 304 246 63 290 343 344 343 3 359 12 16 14 12 27 39 31 38 73 81 67 88 88 64
241 230 234 229 242 270 288 259 228 245 183 216 236 253 259 293 272 247 292 262 156 264 109 232 329 337 348 339 354 353 71 16 21 35 44 53 48 60 86 84 87 107 89 80
243 239 259 272 271 261 267 268 231 212 221 228 209 263 259 236 231 213 236 136 283 258 207 238 300 352 359 350 11 74 162 23 40 57 78 66 68 76 95 82 87 116 98 88
234 237 238 256 280 284 288 300 306 324 209 212 158 232 220 234 231 286 359 28 279 19 118 132 17 16 9 28 17 124 172 34 59 99 94 89 90 83 103 98 104 100 110 81